Hourly Weather Roundup
Issued by NWS Central Illinois

Home | Current Version | Previous Version | Text Only | Print | Product List | Glossary On
Versions: 1 2 3 4 5 6 7 8 9 10 11 12 13 14 15 16 17 18 19 20 21 22 23 24 25 26 27 28 29 30 31 32 33 34 35 36 37 38 39 40 41 42 43 44 45 46 47 48 49 50
000
NZUS43 KILX 100410
HWRILX

AREA WEATHER ROUNDUP
NATIONAL WEATHER SERVICE, LINCOLN IL
1000 PM CST TUE FEB 09 2016


CITY           SKY/WX    TMP DP  RH WIND       PRES   REMARKS
BLOOMINGTON    CLOUDY    14   7  74 NW21      30.02R WCI  -4
CHAMPAIGN      CLOUDY    15   9  76 W16       30.00S WCI  -1
DANVILLE       FLURRIES  15  11  83 NW12G17   29.96R WCI   2
DECATUR        LGT SNOW  15   8  73 NW15G25   30.04R WCI   0
EFFINGHAM      LGT SNOW  18  14  84 NW15      30.07R WCI   4
FLORA          PTCLDY    20  10  66 NW15G23   30.07F WCI   6
GALESBURG      CLEAR     11   5  77 W10       30.08S WCI  -3
JACKSONVILLE   MOCLDY    17   8  70 NW20      30.12R WCI   0
LACON          MOCLDY    13   4  69 NW13G20   30.05R WCI  -2
LAWRENCEVILLE  CLOUDY    19  10  68 W16       30.05S WCI   4
LITCHFIELD     CLEAR     15   5  64 NW10      30.09R WCI   3
$$


CITY           SKY/WX    TMP DP  RH WIND       PRES   REMARKS
LINCOLN        LGT SNOW  15  10  82 NW8G17    30.07R WCI   4
MACOMB         CLEAR     13   7  78 NW15G23   30.13R WCI  -3
MATTOON        LGT SNOW  16  10  77 NW16      30.01S WCI   1
MT CARMEL AP   LGT SNOW  19  14  79 W10       30.06S WCI   8
OLNEY-NOBLE AP CLOUDY    19  10  68 NW18G24   30.06S WCI   4
PARIS          FLURRIES  16  12  84 NW15      30.01S WCI   2
PEORIA         CLOUDY    13   4  67 NW13      30.07R WCI  -2
PONTIAC        MOCLDY    15  10  79 NW12      30.01S WCI   2
RANTOUL        LGT SNOW  17  12  81 NW18G24   29.99S WCI   1
ROBINSON       LGT SNOW  17  11  77 W12       30.06R WCI   4
SPRINGFIELD    MOCLDY    16   5  62 NW18G26   30.09R WCI   0
TAYLORVILLE    MOCLDY    16   7  67 NW21G28   30.08R WCI  -2
$$

...REGIONAL REPORTS...


CITY           SKY/WX    TMP DP  RH WIND       PRES   REMARKS
CHICAGO O`HARE CLOUDY    14   7  73 NW14      29.94S WCI  -1
KANKAKEE       LGT SNOW  15   9  76 NW14G21   29.98S WCI   1
MOLINE         CLEAR     13   3  64 NW10      30.09R WCI   0
MOUNT STERLING CLOUDY    13   6  72 NW16G23   30.12R WCI  -3
MOUNT VERNON   CLEAR     18   9  68 CALM      30.09S
PITTSFIELD     MOCLDY    17   8  69 NW16      30.14R WCI   1
QUINCY         CLOUDY    15   5  64 NW20G30   30.14R WCI  -2
ROCKFORD       CLOUDY    14   1  56 NW13      30.01R WCI   0
$$


CITY           SKY/WX    TMP DP  RH WIND       PRES   REMARKS
BURLINGTON     CLEAR     13   5  70 NW17      30.11S WCI  -4
CEDAR RAPIDS   CLEAR      9   4  80 NW13      30.10S WCI  -7
DES MOINES     CLEAR     16   6  65 NW9       30.18S WCI   4
KIRKSVILLE     PTCLDY    15   6  67 NW8       30.17S WCI   4
OTTUMWA        CLEAR     14   8  77 NW17      30.15S WCI  -3
ST LOUIS       PTCLDY    22   8  55 NW15G25   30.12R WCI   9
$$


CITY           SKY/WX    TMP DP  RH WIND       PRES   REMARKS
TERRE HAUTE    LGT SNOW  17  11  77 W14       30.01S WCI   3
EVANSVILLE     FLURRIES  21  12  68 W7        30.08S WCI  13
INDIANAPOLIS   FLURRIES  15   9  76 W15       29.94S WCI   0
LAFAYETTE      LGT SNOW  16  11  80 W9        29.96R WCI   4
MADISON        PTCLDY    10   0  63 NW9       29.98R WCI  -3
MILWAUKEE      LGT SNOW  15   9  76 NW14      29.92S WCI   0
$$





USA.gov is the U.S. government's official web portal to all federal, state and local government web resources and services.